Weather Roundup
Issued by NWS Springfield, MO

Home | Current Version | Previous Version | Text Only | Print | Product List | Glossary On
Versions: 1 2 3 4 5 6 7 8 9 10 11 12 13 14 15 16 17 18 19 20 21 22 23 24 25 26 27 28 29 30 31 32 33 34 35 36 37 38 39 40 41 42 43 44 45 46 47 48 49 50
000
NZUS99 KSGF 200859
HRRSGF

HOURLY WEATHER
NATIONAL WEATHER SERVICE SPRINGFIELD MO
400 AM CDT WED AUG 20 2014

......SGF CWA......

CITY           SKY/WX    TMP DP  RH WIND       PRES   REMARKS
SPRINGFIELD    CLEAR     74  70  87 S6        29.92R
JOPLIN         CLEAR     77  70  79 S8        29.90S
WEST PLAINS    CLEAR     74  70  87 W6        29.94R
ROLLA          PTCLDY    71  68  90 SW7       29.89R
OSAGE BEACH    CLEAR     70  66  88 CALM      29.89R

......SURROUNDING SGF CWA......

CITY           SKY/WX    TMP DP  RH WIND       PRES   REMARKS
CHANUTE        CLEAR     74  69  85 S7        29.87S
PARSONS        CLEAR     76  70  82 S6        29.88S
COFFEYVILLE    CLEAR     75  71  87 S7        29.87S
EMPORIA        CLEAR     74  68  81 S9        29.85S
SILOAM SPRINGS CLEAR     73  64  73 S6        29.95S
HARRISON AR    CLEAR     77  68  73 SW7       29.95R
NEAR YELLVILLE PTCLDY    77  66  69 SW3       29.91S

......KANSAS AND MISSOURI......

CITY           SKY/WX    TMP DP  RH WIND       PRES   REMARKS
KANSAS CTY INT PTCLDY    76  69  79 SW10      29.83S
DOWNTOWN KC    PTCLDY    83  69  62 SW10      29.82S
COLUMBIA       PTCLDY    73  70  90 S6        29.86S
SEDALIA        CLEAR     77  70  79 SW10      29.86S
ST JOSEPH      PTCLDY    73  70  90 S8        29.79F
ST LOUIS       CLEAR     75  71  87 CALM      29.86R
SPIRIT OF STL  CLEAR     69  68  96 CALM      29.84S
KIRKSVILLE     PTCLDY    71  68  90 SE6       29.84F
WICHITA        PTCLDY    74  67  78 S9        29.84F
TOPEKA         PTCLDY    79  69  71 S10       29.82S
OLATHE         CLEAR     78  69  73 SW8       29.85R

......TENNESSEE......

CITY           SKY/WX    TMP DP  RH WIND       PRES   REMARKS
MEMPHIS        CLEAR     79  74  84 SW6       29.92R
NASHVILLE      MOCLDY    77  73  87 CALM      29.91R

......ARKANSAS.......

CITY           SKY/WX    TMP DP  RH WIND       PRES   REMARKS
FAYETTEVILLE   CLEAR     71  69  93 CALM      29.95R
FT SMITH       CLEAR     75  72  90 E3        29.91R
LITTLE ROCK    CLEAR     77  74  90 SW3       29.92R

......OKLAHOMA.......

CITY           SKY/WX    TMP DP  RH WIND       PRES   REMARKS
TULSA          PTCLDY    79  71  76 S7        29.86S
PONCA CITY     CLEAR     79  68  69 VRB7      29.85S
MCALESTER      PTCLDY    75  68  78 VRB5      29.91S
OKLAHOMA CITY  PTCLDY    75  67  76 S8        29.87S

......IOWA............

CITY           SKY/WX    TMP DP  RH WIND       PRES   REMARKS
DES MOINES     MOCLDY    74  65  73 SE6       29.80F
QUAD CITIES    CLEAR     64  62  93 CALM      29.82F

......ILLINOIS........

CITY           SKY/WX    TMP DP  RH WIND       PRES   REMARKS
QUINCY         PTCLDY    71  69  93 CALM      29.85R
CHICAGO        CLEAR     68  60  75 W5        29.81R



USA.gov is the U.S. government's official web portal to all federal, state and local government web resources and services.